Tracking 17857 objects as of 29-September-2016
HD Live streaming from Space Station
objects crossing your sky now

INTELSAT 501

Track INTELSAT 501 now!
INTELSAT 501 is classified as:


NORAD ID: 12474
Int'l Code: 1981-050A
Perigee: 36,152.6 km
Apogee: 36,239.1 km
Inclination: 15.2 °
Period: 1,456.7 minutes
Semi major axis: 42566 km
RCS: 3.981 m2 (large)
Launch date: May 23, 1981
Source: International Telecommunications Satellite Organization (ITSO)
Launch site: AIR FORCE EASTERN TEST RANGE (AFETR)
Your satellite tracking list
Your tracking list is empty





NASA's NSSDC Master Catalog

Two Line Element Set (TLE):
1 12474U 81050A   16273.36670883 -.00000091  00000-0  00000+0 0  9992
2 12474  15.1777 355.0825 0010154 203.9511 143.2172  0.98854336102670
Source of the keplerian elements: AFSPC

N2YO: 450